GEFSSGP_prec_meanprecacc_090.txt.gz
Total_Precipitation_Accumulation
0.00 0.02 0.11 0.16 0.19 0.38 0.42 0.20 0.08 0.04 0.02 0.02 0.02 0.02 0.02 0.03 0.08 0.14 0.02 0.00 0.00 0.00 0.00 0.02 0.01 0.01 0.01 0.01 0.03 0.04 0.05 0.06 0.06 0.05 0.04 0.03 0.02 0.01 0.01 0.01 0.01 0.02 0.02 0.03 0.02 0.03 0.02 0.03 0.02
0.00 0.01 0.07 0.12 0.28 0.75 0.60 0.20 0.08 0.03 0.03 0.02 0.02 0.01 0.01 0.00 0.01 0.00 0.00 0.00 0.00 0.00 0.00 0.01 0.01 0.01 0.01 0.01 0.02 0.03 0.04 0.05 0.05 0.05 0.04 0.03 0.02 0.02 0.03 0.02 0.02 0.02 0.03 0.04 0.03 0.02 0.02 0.02 0.01
0.00 0.00 0.04 0.09 0.26 0.48 0.34 0.12 0.06 0.03 0.03 0.02 0.02 0.02 0.01 0.00 0.00 0.00 0.00 0.00 0.00 0.00 0.00 0.01 0.01 0.01 0.01 0.01 0.01 0.03 0.04 0.04 0.05 0.04 0.04 0.03 0.03 0.03 0.03 0.02 0.02 0.02 0.04 0.04 0.03 0.02 0.02 0.02 0.02
0.00 0.00 0.01 0.04 0.11 0.19 0.15 0.09 0.05 0.04 0.04 0.02 0.02 0.03 0.01 0.00 0.00 0.00 0.00 0.00 0.00 0.00 0.00 0.01 0.01 0.01 0.01 0.01 0.01 0.02 0.03 0.04 0.04 0.04 0.03 0.04 0.03 0.03 0.03 0.03 0.02 0.04 0.05 0.05 0.04 0.02 0.02 0.02 0.02
0.00 0.00 0.00 0.03 0.07 0.14 0.15 0.11 0.07 0.04 0.04 0.03 0.04 0.05 0.03 0.01 0.00 0.00 0.00 0.00 0.00 0.00 0.00 0.01 0.02 0.01 0.01 0.01 0.01 0.02 0.03 0.03 0.04 0.04 0.03 0.03 0.03 0.03 0.03 0.03 0.03 0.05 0.07 0.08 0.05 0.03 0.03 0.02 0.02
0.00 0.00 0.00 0.02 0.05 0.08 0.11 0.09 0.08 0.06 0.06 0.09 0.06 0.08 0.10 0.02 0.00 0.00 0.00 0.00 0.00 0.00 0.01 0.02 0.02 0.02 0.02 0.02 0.02 0.02 0.03 0.04 0.04 0.04 0.04 0.03 0.03 0.03 0.04 0.05 0.05 0.07 0.08 0.08 0.05 0.04 0.04 0.03 0.03
0.00 0.00 0.00 0.01 0.02 0.03 0.06 0.08 0.08 0.08 0.11 0.10 0.07 0.13 0.17 0.08 0.01 0.00 0.00 0.00 0.00 0.00 0.01 0.03 0.03 0.03 0.03 0.03 0.03 0.03 0.03 0.04 0.04 0.05 0.04 0.04 0.04 0.05 0.07 0.09 0.10 0.09 0.09 0.10 0.07 0.04 0.04 0.04 0.04
0.00 0.00 0.00 0.00 0.01 0.02 0.03 0.04 0.06 0.16 0.11 0.05 0.07 0.15 0.23 0.13 0.02 0.01 0.01 0.01 0.02 0.05 0.04 0.04 0.05 0.06 0.05 0.04 0.04 0.04 0.05 0.06 0.06 0.06 0.06 0.07 0.06 0.08 0.11 0.12 0.14 0.16 0.17 0.16 0.14 0.10 0.07 0.07 0.06
0.00 0.00 0.00 0.00 0.00 0.01 0.02 0.03 0.04 0.07 0.07 0.05 0.08 0.16 0.23 0.14 0.04 0.03 0.02 0.04 0.06 0.12 0.08 0.04 0.05 0.06 0.08 0.07 0.07 0.08 0.10 0.10 0.10 0.12 0.13 0.14 0.14 0.18 0.27 0.27 0.31 0.31 0.32 0.31 0.27 0.25 0.22 0.20 0.13
0.00 0.00 0.00 0.00 0.00 0.00 0.00 0.03 0.08 0.09 0.14 0.20 0.25 0.20 0.18 0.14 0.10 0.05 0.05 0.07 0.08 0.09 0.08 0.08 0.09 0.08 0.08 0.09 0.15 0.17 0.18 0.24 0.20 0.26 0.31 0.32 0.39 0.35 0.27 0.42 0.57 0.61 0.68 0.66 0.64 0.63 0.50 0.35 0.30
0.00 0.00 0.00 0.00 0.00 0.00 0.00 0.03 0.10 0.15 0.26 0.39 0.39 0.33 0.17 0.15 0.12 0.08 0.07 0.12 0.20 0.25 0.21 0.15 0.13 0.14 0.15 0.17 0.19 0.23 0.27 0.39 0.32 0.33 0.43 0.61 0.63 0.47 0.40 0.47 0.66 0.81 0.88 0.81 1.04 1.14 0.80 0.73 0.89
0.00 0.00 0.00 0.00 0.00 0.00 0.01 0.04 0.11 0.20 0.36 0.42 0.32 0.30 0.32 0.28 0.26 0.22 0.19 0.25 0.36 0.39 0.32 0.26 0.22 0.23 0.25 0.30 0.32 0.38 0.39 0.45 0.47 0.58 0.63 0.81 0.92 0.80 0.77 0.79 0.78 0.87 0.97 1.18 1.31 1.42 1.32 1.26 1.18
0.00 0.00 0.00 0.00 0.00 0.00 0.03 0.10 0.17 0.24 0.27 0.30 0.21 0.14 0.19 0.30 0.29 0.26 0.33 0.51 0.52 0.42 0.37 0.38 0.39 0.46 0.52 0.60 0.66 0.67 0.69 0.72 0.77 0.89 0.89 0.93 1.08 1.06 1.14 1.10 1.04 0.96 1.09 1.34 1.57 1.58 1.67 1.71 1.59
0.00 0.00 0.00 0.00 0.00 0.01 0.05 0.16 0.16 0.18 0.20 0.20 0.14 0.13 0.19 0.29 0.39 0.37 0.42 0.54 0.61 0.60 0.67 0.73 0.79 0.94 0.96 0.99 0.98 1.00 0.98 0.99 0.98 1.05 1.05 1.13 1.32 1.43 1.38 1.23 1.25 1.19 1.27 1.38 1.58 1.70 1.98 1.91 1.83
0.00 0.00 0.01 0.01 0.01 0.01 0.05 0.17 0.18 0.14 0.20 0.24 0.28 0.21 0.23 0.32 0.42 0.43 0.41 0.50 0.65 0.81 1.03 1.22 1.41 1.51 1.49 1.47 1.36 1.31 1.31 1.28 1.30 1.34 1.38 1.50 1.59 1.69 1.65 1.45 1.36 1.42 1.49 1.55 1.59 1.71 1.97 1.89 1.75
0.00 0.01 0.04 0.04 0.03 0.04 0.09 0.34 0.24 0.21 0.25 0.26 0.35 0.36 0.38 0.33 0.42 0.47 0.48 0.60 0.72 0.93 1.18 1.57 1.96 2.03 1.96 1.85 1.72 1.60 1.52 1.49 1.49 1.52 1.57 1.62 1.71 1.77 1.73 1.52 1.37 1.59 1.60 1.61 1.70 1.78 1.88 1.95 1.95
0.01 0.02 0.07 0.11 0.10 0.06 0.18 0.52 0.48 0.43 0.35 0.25 0.29 0.36 0.40 0.36 0.43 0.52 0.62 0.79 0.94 1.17 1.63 2.23 2.43 2.48 2.41 2.16 1.97 1.85 1.80 1.69 1.59 1.62 1.56 1.59 1.69 1.69 1.73 1.47 1.36 1.61 1.74 1.72 1.61 1.82 2.02 2.00 2.01
0.02 0.02 0.05 0.09 0.10 0.10 0.25 0.43 0.50 0.51 0.48 0.43 0.35 0.34 0.38 0.40 0.49 0.64 0.81 0.99 1.24 1.63 2.12 2.48 2.70 2.89 2.86 2.77 2.56 2.24 2.03 1.82 1.72 1.63 1.51 1.43 1.39 1.50 1.70 1.44 1.43 1.68 1.72 1.68 1.76 1.90 2.07 1.95 1.99
0.03 0.05 0.12 0.13 0.11 0.21 0.36 0.51 0.53 0.50 0.46 0.47 0.48 0.45 0.47 0.57 0.66 0.74 0.93 1.16 1.44 1.78 2.10 2.57 2.84 2.92 2.90 2.90 2.64 2.25 1.88 1.69 1.54 1.42 1.34 1.34 1.39 1.54 1.81 1.59 1.59 1.65 1.57 1.57 1.76 1.90 1.82 1.70 2.11
0.05 0.09 0.16 0.20 0.14 0.19 0.34 0.55 0.63 0.52 0.52 0.52 0.57 0.67 0.65 0.76 0.85 0.98 1.18 1.30 1.32 1.48 1.84 2.19 2.26 2.07 1.95 1.94 1.92 1.79 1.72 1.56 1.41 1.37 1.42 1.40 1.45 1.52 1.64 1.66 1.59 1.60 1.57 1.43 1.52 1.77 1.65 1.37 1.82
0.07 0.07 0.08 0.14 0.14 0.22 0.39 0.68 0.75 0.56 0.54 0.60 0.66 0.79 0.89 0.90 1.02 1.11 1.19 1.22 1.21 1.24 1.41 1.56 1.46 1.33 1.30 1.38 1.49 1.56 1.66 1.57 1.56 1.63 1.68 1.54 1.55 1.56 1.65 1.56 1.42 1.39 1.41 1.28 1.29 1.50 1.56 1.35 1.42
0.11 0.06 0.04 0.06 0.17 0.36 0.47 0.82 0.91 0.71 0.66 0.64 0.67 0.75 0.81 0.82 0.86 0.89 0.88 0.97 0.99 0.98 1.08 1.24 1.22 1.17 1.24 1.47 1.58 1.63 1.76 1.88 2.03 2.21 2.15 2.01 1.84 1.71 1.63 1.47 1.31 1.16 1.13 1.09 1.07 1.23 1.35 1.36 1.17
0.06 0.03 0.04 0.06 0.12 0.26 0.32 0.58 0.82 0.85 0.74 0.62 0.63 0.70 0.72 0.75 0.76 0.72 0.76 0.86 0.91 0.84 0.89 1.09 1.22 1.35 1.54 1.73 1.83 1.93 2.00 2.07 2.06 2.08 2.01 1.91 1.81 1.68 1.52 1.40 1.28 1.17 1.08 1.01 0.99 1.04 1.08 1.12 1.04
0.04 0.06 0.11 0.13 0.22 0.45 0.38 0.43 0.75 0.78 0.67 0.59 0.47 0.47 0.53 0.56 0.54 0.55 0.63 0.88 1.11 1.08 1.01 1.06 1.25 1.46 1.61 1.70 1.77 1.80 1.77 1.73 1.63 1.53 1.42 1.34 1.30 1.25 1.19 1.12 1.03 0.98 0.98 0.99 0.97 0.95 0.96 0.98 1.00
0.05 0.13 0.42 0.62 0.74 0.75 0.39 0.40 0.66 0.63 0.61 0.53 0.56 0.56 0.42 0.37 0.42 0.40 0.38 0.45 0.52 0.59 0.62 0.64 0.71 0.91 1.05 1.13 1.17 1.20 1.19 1.12 1.03 0.95 0.87 0.80 0.75 0.70 0.68 0.70 0.72 0.74 0.75 0.75 0.78 0.77 0.78 0.87 0.94
0.05 0.07 0.22 0.33 0.39 0.46 0.40 0.74 0.75 0.52 0.41 0.42 0.46 0.39 0.25 0.22 0.22 0.19 0.17 0.18 0.31 0.45 0.56 0.60 0.57 0.57 0.57 0.62 0.67 0.65 0.66 0.63 0.60 0.65 0.58 0.54 0.53 0.50 0.49 0.52 0.55 0.57 0.60 0.62 0.65 0.66 0.66 0.68 0.74
0.04 0.04 0.04 0.06 0.12 0.26 0.39 0.76 0.73 0.43 0.39 0.37 0.26 0.16 0.13 0.10 0.08 0.07 0.07 0.08 0.16 0.30 0.39 0.41 0.43 0.47 0.50 0.52 0.51 0.44 0.40 0.39 0.40 0.43 0.44 0.45 0.49 0.44 0.45 0.49 0.54 0.57 0.61 0.62 0.61 0.62 0.63 0.71 0.77
0.05 0.04 0.03 0.05 0.09 0.16 0.30 0.56 0.70 0.47 0.41 0.33 0.21 0.16 0.10 0.06 0.03 0.03 0.03 0.04 0.07 0.14 0.24 0.32 0.37 0.41 0.47 0.50 0.48 0.42 0.35 0.30 0.31 0.34 0.40 0.43 0.42 0.43 0.47 0.49 0.55 0.59 0.59 0.57 0.56 0.56 0.59 0.69 0.79
0.05 0.05 0.03 0.03 0.04 0.09 0.23 0.35 0.32 0.31 0.27 0.23 0.16 0.09 0.05 0.02 0.01 0.02 0.07 0.12 0.18 0.28 0.37 0.43 0.45 0.42 0.43 0.45 0.45 0.41 0.36 0.33 0.33 0.34 0.37 0.39 0.40 0.42 0.45 0.49 0.52 0.53 0.54 0.55 0.58 0.58 0.63 0.69 0.74
0.04 0.03 0.03 0.03 0.03 0.03 0.10 0.24 0.14 0.12 0.11 0.08 0.06 0.03 0.02 0.01 0.02 0.06 0.13 0.20 0.25 0.33 0.42 0.47 0.52 0.54 0.56 0.60 0.65 0.71 0.69 0.62 0.54 0.41 0.38 0.42 0.47 0.49 0.50 0.53 0.54 0.52 0.55 0.63 0.70 0.69 0.73 0.79 0.80

GEFSSGP_prec_meanprecacc_096.txt.gz
Total_Precipitation_Accumulation
0.00 0.02 0.11 0.18 0.22 0.48 0.58 0.37 0.23 0.14 0.11 0.10 0.10 0.10 0.08 0.08 0.12 0.18 0.04 0.01 0.00 0.00 0.00 0.02 0.01 0.01 0.01 0.02 0.03 0.04 0.06 0.07 0.07 0.06 0.05 0.03 0.02 0.01 0.01 0.01 0.01 0.02 0.02 0.03 0.03 0.03 0.02 0.03 0.02
0.00 0.02 0.08 0.15 0.34 0.90 0.77 0.32 0.18 0.15 0.16 0.15 0.17 0.14 0.12 0.04 0.02 0.02 0.01 0.01 0.00 0.00 0.00 0.01 0.01 0.01 0.01 0.01 0.02 0.04 0.05 0.06 0.06 0.06 0.05 0.04 0.03 0.03 0.04 0.02 0.02 0.02 0.03 0.04 0.03 0.02 0.02 0.02 0.02
0.00 0.01 0.05 0.12 0.36 0.65 0.51 0.21 0.14 0.15 0.23 0.22 0.24 0.14 0.12 0.04 0.02 0.02 0.02 0.01 0.01 0.00 0.00 0.01 0.01 0.01 0.01 0.01 0.02 0.03 0.04 0.06 0.06 0.05 0.05 0.04 0.04 0.04 0.04 0.03 0.02 0.03 0.04 0.04 0.03 0.02 0.03 0.02 0.02
0.00 0.01 0.03 0.08 0.17 0.26 0.21 0.12 0.10 0.13 0.19 0.18 0.22 0.19 0.13 0.07 0.07 0.04 0.03 0.02 0.01 0.01 0.01 0.01 0.02 0.01 0.01 0.01 0.02 0.03 0.04 0.05 0.06 0.06 0.05 0.05 0.05 0.04 0.04 0.04 0.03 0.04 0.05 0.06 0.04 0.02 0.02 0.02 0.02
0.00 0.01 0.02 0.06 0.10 0.17 0.17 0.14 0.12 0.12 0.17 0.21 0.17 0.18 0.18 0.13 0.08 0.05 0.03 0.02 0.02 0.01 0.01 0.02 0.02 0.02 0.01 0.01 0.01 0.02 0.03 0.04 0.05 0.05 0.04 0.04 0.04 0.04 0.04 0.04 0.04 0.06 0.08 0.09 0.05 0.03 0.03 0.02 0.02
0.00 0.00 0.01 0.03 0.06 0.08 0.12 0.11 0.13 0.14 0.19 0.31 0.24 0.19 0.25 0.17 0.07 0.05 0.04 0.03 0.02 0.02 0.03 0.03 0.03 0.03 0.02 0.02 0.02 0.02 0.03 0.04 0.04 0.05 0.05 0.04 0.04 0.05 0.05 0.06 0.06 0.07 0.08 0.08 0.06 0.04 0.04 0.03 0.03
0.00 0.00 0.00 0.01 0.02 0.03 0.06 0.09 0.12 0.14 0.23 0.38 0.32 0.30 0.41 0.29 0.13 0.10 0.07 0.06 0.05 0.07 0.12 0.07 0.05 0.04 0.04 0.04 0.04 0.03 0.04 0.05 0.05 0.05 0.05 0.05 0.05 0.06 0.08 0.10 0.11 0.11 0.10 0.10 0.07 0.04 0.04 0.04 0.04
0.00 0.00 0.00 0.00 0.01 0.02 0.03 0.05 0.08 0.22 0.24 0.29 0.26 0.34 0.53 0.42 0.20 0.16 0.11 0.10 0.12 0.20 0.18 0.09 0.07 0.07 0.07 0.06 0.05 0.05 0.06 0.07 0.07 0.07 0.07 0.07 0.07 0.10 0.14 0.14 0.16 0.19 0.19 0.18 0.14 0.10 0.07 0.07 0.06
0.00 0.00 0.00 0.00 0.00 0.01 0.02 0.04 0.06 0.15 0.29 0.42 0.42 0.37 0.44 0.31 0.24 0.21 0.15 0.25 0.22 0.29 0.22 0.08 0.06 0.07 0.09 0.09 0.09 0.09 0.11 0.12 0.11 0.13 0.14 0.15 0.16 0.23 0.34 0.35 0.38 0.36 0.36 0.34 0.30 0.27 0.24 0.21 0.13
0.00 0.00 0.00 0.00 0.00 0.00 0.01 0.03 0.09 0.17 0.41 0.56 0.54 0.43 0.37 0.36 0.33 0.29 0.22 0.26 0.24 0.17 0.15 0.13 0.10 0.10 0.10 0.12 0.18 0.22 0.23 0.29 0.24 0.29 0.35 0.36 0.44 0.41 0.36 0.54 0.69 0.72 0.76 0.72 0.70 0.69 0.54 0.38 0.32
0.00 0.00 0.00 0.00 0.00 0.00 0.01 0.04 0.11 0.25 0.51 0.79 0.95 0.84 0.57 0.50 0.51 0.45 0.33 0.31 0.31 0.31 0.26 0.21 0.18 0.19 0.18 0.22 0.24 0.31 0.37 0.51 0.41 0.41 0.52 0.68 0.70 0.55 0.48 0.56 0.78 0.94 1.00 0.90 1.14 1.23 0.87 0.79 0.93
0.00 0.00 0.00 0.00 0.00 0.00 0.03 0.06 0.12 0.26 0.51 0.70 0.80 0.92 0.92 0.81 0.85 0.74 0.62 0.61 0.54 0.48 0.40 0.35 0.30 0.28 0.31 0.35 0.36 0.44 0.47 0.62 0.60 0.69 0.77 0.89 0.98 0.87 0.82 0.89 0.90 1.00 1.12 1.34 1.47 1.55 1.41 1.34 1.26
0.00 0.00 0.00 0.00 0.00 0.00 0.04 0.12 0.21 0.31 0.38 0.50 0.54 0.59 0.71 0.87 0.98 0.87 0.87 0.98 0.79 0.61 0.49 0.49 0.52 0.56 0.60 0.67 0.72 0.74 0.76 0.84 0.88 0.98 0.97 1.00 1.15 1.11 1.17 1.15 1.21 1.17 1.27 1.50 1.72 1.70 1.75 1.79 1.66
0.00 0.00 0.00 0.00 0.00 0.01 0.05 0.18 0.20 0.28 0.33 0.35 0.40 0.54 0.76 0.95 0.93 0.90 1.01 1.02 0.91 0.90 0.88 0.87 0.92 1.10 1.09 1.09 1.05 1.06 1.04 1.05 1.05 1.13 1.14 1.23 1.38 1.48 1.41 1.26 1.31 1.28 1.37 1.47 1.66 1.76 2.02 1.96 1.89
0.00 0.00 0.01 0.01 0.02 0.03 0.07 0.20 0.23 0.30 0.38 0.43 0.60 0.68 0.90 0.92 0.91 0.88 0.88 0.86 0.88 1.08 1.25 1.37 1.54 1.65 1.62 1.57 1.44 1.38 1.37 1.33 1.35 1.39 1.44 1.57 1.64 1.71 1.66 1.47 1.38 1.45 1.53 1.60 1.65 1.75 2.00 1.93 1.81
0.01 0.02 0.04 0.04 0.05 0.05 0.11 0.40 0.30 0.39 0.55 0.66 0.83 0.84 0.91 0.85 0.91 0.90 0.90 0.96 0.94 1.13 1.37 1.72 2.04 2.11 2.02 1.92 1.78 1.65 1.56 1.54 1.53 1.57 1.59 1.64 1.72 1.77 1.74 1.53 1.39 1.61 1.63 1.66 1.76 1.82 1.93 1.99 2.00
0.02 0.04 0.09 0.12 0.11 0.07 0.20 0.57 0.57 0.63 0.70 0.75 0.79 0.83 0.84 0.82 0.94 1.08 1.13 1.27 1.23 1.35 1.78 2.33 2.50 2.55 2.46 2.20 2.00 1.88 1.83 1.72 1.64 1.65 1.58 1.61 1.70 1.69 1.73 1.47 1.36 1.62 1.76 1.74 1.64 1.84 2.04 2.01 2.03
0.03 0.03 0.06 0.11 0.12 0.13 0.28 0.47 0.57 0.68 0.76 0.82 0.76 0.71 0.67 0.77 1.02 1.16 1.30 1.34 1.45 1.77 2.23 2.56 2.76 2.94 2.90 2.81 2.58 2.26 2.05 1.84 1.73 1.65 1.53 1.44 1.40 1.51 1.71 1.44 1.44 1.68 1.73 1.69 1.78 1.91 2.08 1.96 2.01
0.04 0.06 0.13 0.15 0.13 0.25 0.43 0.58 0.65 0.74 0.75 0.81 0.85 0.74 0.68 0.85 1.07 1.08 1.17 1.35 1.60 1.95 2.23 2.64 2.89 2.96 2.93 2.92 2.66 2.27 1.90 1.70 1.56 1.44 1.35 1.35 1.40 1.55 1.82 1.59 1.60 1.66 1.58 1.58 1.78 1.91 1.84 1.71 2.13
0.06 0.10 0.18 0.22 0.15 0.23 0.42 0.64 0.75 0.72 0.73 0.78 0.86 0.98 0.94 1.00 1.05 1.15 1.30 1.39 1.43 1.61 1.96 2.24 2.30 2.11 1.97 1.95 1.94 1.81 1.73 1.57 1.42 1.38 1.43 1.41 1.46 1.54 1.65 1.67 1.60 1.61 1.58 1.44 1.53 1.78 1.66 1.38 1.84
0.08 0.08 0.09 0.15 0.17 0.27 0.44 0.76 0.86 0.69 0.68 0.76 0.85 1.03 1.14 1.08 1.11 1.19 1.26 1.29 1.26 1.28 1.44 1.59 1.48 1.36 1.32 1.40 1.51 1.56 1.66 1.57 1.57 1.63 1.68 1.54 1.56 1.57 1.66 1.57 1.43 1.40 1.42 1.29 1.30 1.50 1.57 1.36 1.43
0.12 0.06 0.04 0.07 0.20 0.41 0.52 0.90 0.97 0.79 0.75 0.77 0.83 0.92 0.93 0.94 0.92 0.94 0.93 1.02 1.03 1.01 1.11 1.28 1.25 1.19 1.26 1.48 1.59 1.63 1.76 1.88 2.03 2.22 2.16 2.01 1.84 1.72 1.63 1.47 1.31 1.16 1.14 1.10 1.07 1.24 1.36 1.37 1.17
0.07 0.04 0.05 0.08 0.16 0.30 0.37 0.64 0.86 0.91 0.81 0.71 0.73 0.79 0.79 0.81 0.82 0.75 0.78 0.87 0.92 0.85 0.91 1.12 1.25 1.37 1.56 1.74 1.84 1.93 2.00 2.07 2.07 2.09 2.02 1.92 1.81 1.68 1.52 1.40 1.28 1.17 1.08 1.01 0.99 1.04 1.08 1.12 1.04
0.04 0.07 0.13 0.18 0.28 0.51 0.43 0.48 0.79 0.82 0.72 0.64 0.52 0.52 0.58 0.60 0.59 0.57 0.64 0.89 1.11 1.09 1.03 1.09 1.27 1.48 1.63 1.71 1.78 1.80 1.77 1.73 1.63 1.53 1.42 1.34 1.30 1.25 1.20 1.12 1.03 0.99 0.98 0.99 0.97 0.95 0.96 0.98 1.00
0.06 0.15 0.46 0.69 0.83 0.81 0.42 0.43 0.69 0.65 0.63 0.56 0.60 0.60 0.45 0.40 0.45 0.41 0.40 0.46 0.53 0.60 0.64 0.66 0.73 0.93 1.06 1.14 1.18 1.20 1.20 1.12 1.03 0.95 0.87 0.80 0.75 0.71 0.68 0.70 0.72 0.74 0.75 0.75 0.78 0.77 0.78 0.87 0.94
0.06 0.09 0.26 0.37 0.47 0.56 0.45 0.77 0.78 0.53 0.43 0.44 0.49 0.41 0.27 0.24 0.23 0.20 0.18 0.18 0.31 0.45 0.57 0.62 0.60 0.58 0.58 0.62 0.67 0.65 0.66 0.63 0.60 0.65 0.58 0.54 0.53 0.50 0.49 0.52 0.55 0.57 0.60 0.62 0.65 0.66 0.66 0.68 0.74
0.05 0.05 0.06 0.10 0.18 0.37 0.52 0.83 0.78 0.45 0.40 0.38 0.27 0.17 0.14 0.11 0.08 0.08 0.08 0.08 0.16 0.31 0.40 0.44 0.47 0.48 0.50 0.53 0.51 0.44 0.40 0.39 0.40 0.43 0.44 0.45 0.49 0.44 0.45 0.49 0.54 0.57 0.61 0.62 0.61 0.62 0.63 0.72 0.77
0.05 0.05 0.05 0.07 0.15 0.27 0.43 0.67 0.75 0.48 0.42 0.34 0.21 0.17 0.10 0.06 0.04 0.03 0.03 0.04 0.07 0.14 0.24 0.32 0.38 0.42 0.47 0.51 0.48 0.42 0.35 0.30 0.31 0.34 0.40 0.43 0.42 0.43 0.47 0.49 0.55 0.59 0.59 0.57 0.56 0.56 0.59 0.69 0.79
0.06 0.06 0.05 0.05 0.07 0.14 0.30 0.40 0.34 0.32 0.28 0.24 0.17 0.09 0.05 0.03 0.01 0.02 0.07 0.12 0.18 0.28 0.37 0.43 0.45 0.42 0.43 0.45 0.45 0.41 0.36 0.33 0.33 0.34 0.37 0.39 0.40 0.42 0.45 0.49 0.52 0.53 0.54 0.55 0.58 0.58 0.63 0.70 0.75
0.06 0.05 0.05 0.06 0.05 0.06 0.14 0.26 0.15 0.13 0.12 0.09 0.06 0.03 0.02 0.01 0.02 0.06 0.13 0.20 0.25 0.33 0.42 0.47 0.52 0.54 0.56 0.60 0.65 0.71 0.69 0.62 0.54 0.41 0.38 0.42 0.47 0.49 0.50 0.53 0.54 0.52 0.55 0.63 0.70 0.69 0.74 0.79 0.80

GEFSSGP_prec_meanprecacc_102.txt.gz
Total_Precipitation_Accumulation
0.00 0.02 0.12 0.18 0.23 0.49 0.59 0.38 0.24 0.17 0.16 0.20 0.30 0.31 0.26 0.23 0.25 0.27 0.07 0.02 0.01 0.00 0.01 0.03 0.03 0.02 0.02 0.02 0.04 0.05 0.06 0.07 0.07 0.06 0.05 0.04 0.03 0.02 0.01 0.01 0.02 0.02 0.03 0.03 0.03 0.03 0.03 0.03 0.02
0.00 0.02 0.08 0.15 0.35 0.90 0.77 0.34 0.21 0.20 0.23 0.24 0.30 0.37 0.37 0.20 0.13 0.09 0.04 0.02 0.02 0.01 0.01 0.02 0.03 0.02 0.02 0.02 0.03 0.04 0.05 0.06 0.07 0.06 0.05 0.04 0.03 0.03 0.04 0.03 0.02 0.03 0.04 0.05 0.03 0.03 0.02 0.03 0.02
0.00 0.01 0.05 0.13 0.36 0.66 0.51 0.21 0.15 0.18 0.28 0.31 0.37 0.31 0.33 0.17 0.08 0.06 0.04 0.03 0.03 0.02 0.02 0.03 0.04 0.02 0.02 0.02 0.03 0.04 0.05 0.06 0.06 0.06 0.05 0.05 0.04 0.04 0.05 0.04 0.03 0.03 0.05 0.05 0.04 0.03 0.03 0.03 0.03
0.00 0.01 0.03 0.09 0.18 0.27 0.22 0.13 0.11 0.15 0.22 0.27 0.39 0.37 0.28 0.16 0.16 0.14 0.05 0.03 0.03 0.04 0.05 0.05 0.05 0.03 0.03 0.02 0.03 0.04 0.05 0.05 0.07 0.06 0.06 0.06 0.06 0.05 0.05 0.04 0.03 0.04 0.06 0.06 0.04 0.03 0.03 0.03 0.03
0.00 0.01 0.03 0.07 0.10 0.17 0.17 0.14 0.12 0.13 0.20 0.27 0.28 0.32 0.28 0.20 0.15 0.09 0.04 0.03 0.04 0.05 0.05 0.05 0.06 0.04 0.03 0.03 0.03 0.03 0.04 0.05 0.06 0.06 0.05 0.05 0.05 0.06 0.06 0.05 0.05 0.06 0.08 0.09 0.05 0.04 0.03 0.02 0.02
0.00 0.00 0.01 0.03 0.06 0.08 0.12 0.11 0.14 0.15 0.20 0.33 0.29 0.28 0.33 0.25 0.11 0.06 0.05 0.05 0.05 0.06 0.05 0.05 0.06 0.06 0.04 0.04 0.04 0.04 0.05 0.06 0.06 0.06 0.06 0.05 0.05 0.05 0.06 0.06 0.07 0.08 0.09 0.09 0.06 0.04 0.04 0.03 0.04
0.00 0.00 0.00 0.01 0.02 0.03 0.07 0.10 0.13 0.15 0.24 0.41 0.36 0.36 0.47 0.41 0.20 0.15 0.18 0.12 0.10 0.11 0.14 0.09 0.07 0.06 0.06 0.06 0.06 0.05 0.06 0.06 0.07 0.07 0.06 0.06 0.06 0.07 0.09 0.11 0.12 0.12 0.11 0.12 0.08 0.05 0.04 0.05 0.05
0.00 0.00 0.00 0.00 0.01 0.02 0.03 0.05 0.09 0.23 0.25 0.31 0.30 0.39 0.61 0.54 0.28 0.23 0.27 0.22 0.23 0.27 0.22 0.11 0.09 0.09 0.08 0.07 0.06 0.07 0.08 0.08 0.08 0.08 0.08 0.09 0.09 0.11 0.15 0.16 0.18 0.21 0.21 0.20 0.16 0.12 0.09 0.09 0.08
0.00 0.00 0.00 0.00 0.00 0.01 0.02 0.04 0.07 0.17 0.30 0.43 0.44 0.41 0.54 0.42 0.32 0.28 0.24 0.33 0.32 0.38 0.27 0.10 0.08 0.09 0.10 0.10 0.10 0.11 0.13 0.13 0.13 0.15 0.16 0.18 0.18 0.24 0.36 0.38 0.43 0.42 0.41 0.39 0.35 0.31 0.27 0.24 0.15
0.00 0.00 0.00 0.00 0.00 0.00 0.01 0.03 0.10 0.18 0.42 0.58 0.57 0.48 0.50 0.52 0.45 0.41 0.31 0.33 0.31 0.22 0.19 0.16 0.13 0.12 0.13 0.13 0.20 0.23 0.25 0.30 0.25 0.32 0.39 0.40 0.47 0.45 0.41 0.61 0.79 0.82 0.85 0.80 0.78 0.76 0.59 0.41 0.33
0.00 0.00 0.00 0.00 0.00 0.00 0.01 0.04 0.12 0.26 0.53 0.81 1.00 0.96 0.73 0.69 0.67 0.59 0.44 0.40 0.41 0.35 0.29 0.25 0.21 0.22 0.21 0.24 0.26 0.33 0.39 0.54 0.44 0.44 0.55 0.72 0.75 0.60 0.55 0.65 0.88 1.06 1.10 0.99 1.22 1.30 0.92 0.82 0.96
0.00 0.00 0.00 0.00 0.00 0.00 0.03 0.06 0.13 0.27 0.54 0.73 0.87 1.06 1.10 1.03 1.04 0.90 0.76 0.75 0.66 0.56 0.46 0.40 0.34 0.32 0.34 0.39 0.39 0.46 0.49 0.65 0.63 0.74 0.82 0.96 1.07 0.95 0.92 0.98 1.00 1.10 1.22 1.43 1.55 1.62 1.46 1.39 1.31
0.00 0.00 0.00 0.00 0.00 0.01 0.04 0.12 0.21 0.32 0.42 0.55 0.63 0.70 0.85 1.06 1.24 1.12 1.09 1.21 0.99 0.77 0.63 0.58 0.61 0.64 0.67 0.74 0.78 0.78 0.81 0.89 0.93 1.05 1.06 1.09 1.23 1.20 1.25 1.23 1.29 1.24 1.34 1.56 1.77 1.76 1.81 1.84 1.71
0.00 0.00 0.00 0.00 0.00 0.01 0.05 0.18 0.21 0.30 0.36 0.40 0.47 0.63 0.92 1.19 1.24 1.21 1.36 1.34 1.22 1.17 1.10 1.06 1.09 1.25 1.22 1.21 1.14 1.16 1.14 1.16 1.14 1.24 1.24 1.31 1.46 1.54 1.46 1.30 1.36 1.34 1.44 1.54 1.72 1.80 2.06 2.00 1.93
0.00 0.01 0.01 0.01 0.02 0.03 0.07 0.21 0.24 0.31 0.41 0.48 0.66 0.76 1.02 1.07 1.15 1.19 1.25 1.30 1.32 1.50 1.61 1.67 1.80 1.88 1.84 1.77 1.60 1.49 1.48 1.43 1.43 1.47 1.49 1.62 1.68 1.75 1.68 1.50 1.41 1.49 1.58 1.64 1.69 1.79 2.04 1.98 1.86
0.01 0.02 0.05 0.04 0.05 0.06 0.11 0.41 0.32 0.41 0.58 0.74 0.93 0.94 1.03 0.98 1.07 1.19 1.31 1.39 1.37 1.55 1.80 2.09 2.35 2.37 2.27 2.14 1.94 1.75 1.66 1.60 1.58 1.61 1.62 1.66 1.74 1.79 1.75 1.54 1.39 1.62 1.64 1.67 1.78 1.85 1.96 2.02 2.03
0.02 0.04 0.09 0.13 0.12 0.08 0.21 0.58 0.59 0.66 0.75 0.83 0.88 0.95 0.99 0.98 1.13 1.37 1.48 1.69 1.66 1.78 2.17 2.66 2.79 2.78 2.66 2.36 2.12 1.97 1.90 1.77 1.67 1.67 1.60 1.63 1.72 1.71 1.75 1.48 1.37 1.62 1.76 1.75 1.65 1.86 2.06 2.03 2.04
0.03 0.04 0.07 0.11 0.13 0.13 0.28 0.48 0.59 0.72 0.82 0.90 0.83 0.80 0.79 0.93 1.21 1.44 1.61 1.69 1.85 2.19 2.60 2.88 3.01 3.12 3.04 2.92 2.65 2.32 2.09 1.87 1.76 1.66 1.53 1.45 1.41 1.52 1.72 1.45 1.44 1.69 1.74 1.69 1.78 1.91 2.09 1.97 2.02
0.04 0.07 0.14 0.15 0.13 0.26 0.44 0.58 0.67 0.78 0.79 0.87 0.95 0.83 0.79 0.99 1.23 1.33 1.47 1.64 1.87 2.22 2.48 2.88 3.11 3.10 3.02 2.97 2.69 2.29 1.92 1.73 1.57 1.45 1.36 1.36 1.41 1.56 1.83 1.60 1.60 1.66 1.59 1.59 1.78 1.92 1.84 1.72 2.14
0.06 0.11 0.18 0.23 0.16 0.24 0.42 0.65 0.77 0.75 0.76 0.82 0.92 1.05 1.02 1.11 1.18 1.33 1.54 1.59 1.59 1.76 2.12 2.40 2.47 2.21 2.03 1.99 1.96 1.83 1.75 1.58 1.43 1.39 1.44 1.42 1.47 1.54 1.65 1.67 1.60 1.61 1.58 1.44 1.53 1.78 1.66 1.38 1.84
0.09 0.09 0.10 0.16 0.17 0.27 0.45 0.77 0.87 0.71 0.70 0.79 0.89 1.08 1.20 1.15 1.19 1.31 1.44 1.43 1.36 1.38 1.56 1.70 1.60 1.43 1.38 1.45 1.54 1.59 1.67 1.57 1.57 1.63 1.69 1.55 1.56 1.57 1.66 1.57 1.43 1.40 1.42 1.29 1.30 1.50 1.57 1.36 1.43
0.12 0.07 0.05 0.08 0.20 0.42 0.52 0.90 0.98 0.81 0.77 0.80 0.87 0.95 0.97 0.99 0.98 1.03 1.06 1.11 1.09 1.06 1.17 1.34 1.30 1.23 1.30 1.52 1.62 1.65 1.77 1.88 2.03 2.22 2.16 2.01 1.84 1.72 1.63 1.47 1.31 1.16 1.14 1.10 1.07 1.24 1.36 1.37 1.17
0.07 0.04 0.05 0.08 0.16 0.30 0.37 0.64 0.86 0.91 0.81 0.72 0.75 0.83 0.81 0.85 0.85 0.81 0.86 0.93 0.96 0.89 0.95 1.15 1.28 1.39 1.59 1.76 1.85 1.94 2.00 2.07 2.07 2.09 2.02 1.92 1.82 1.68 1.52 1.40 1.28 1.17 1.08 1.01 0.99 1.04 1.08 1.12 1.04
0.04 0.07 0.14 0.18 0.28 0.51 0.43 0.48 0.79 0.82 0.72 0.64 0.54 0.55 0.60 0.63 0.61 0.59 0.69 0.92 1.14 1.12 1.06 1.11 1.29 1.49 1.64 1.72 1.79 1.81 1.77 1.73 1.63 1.53 1.42 1.34 1.30 1.25 1.20 1.12 1.03 0.99 0.98 0.99 0.97 0.95 0.96 0.98 1.00
0.06 0.15 0.46 0.69 0.84 0.81 0.43 0.43 0.69 0.65 0.63 0.56 0.60 0.61 0.46 0.41 0.46 0.42 0.41 0.47 0.54 0.62 0.66 0.69 0.75 0.94 1.07 1.15 1.19 1.20 1.20 1.12 1.03 0.95 0.87 0.80 0.75 0.71 0.68 0.70 0.72 0.74 0.75 0.75 0.78 0.77 0.78 0.87 0.94
0.06 0.09 0.27 0.37 0.47 0.56 0.46 0.77 0.78 0.53 0.43 0.44 0.49 0.42 0.28 0.24 0.23 0.21 0.18 0.19 0.32 0.46 0.58 0.63 0.60 0.58 0.59 0.63 0.68 0.65 0.67 0.63 0.60 0.65 0.58 0.54 0.53 0.50 0.49 0.52 0.55 0.57 0.60 0.62 0.65 0.66 0.66 0.68 0.74
0.05 0.05 0.07 0.10 0.19 0.37 0.52 0.83 0.78 0.45 0.40 0.39 0.28 0.18 0.14 0.11 0.09 0.08 0.08 0.08 0.16 0.31 0.40 0.45 0.47 0.48 0.51 0.53 0.52 0.44 0.40 0.40 0.40 0.43 0.44 0.45 0.49 0.44 0.45 0.49 0.54 0.57 0.61 0.62 0.61 0.62 0.63 0.72 0.77
0.06 0.06 0.05 0.08 0.15 0.27 0.44 0.67 0.75 0.48 0.42 0.34 0.22 0.17 0.10 0.06 0.04 0.03 0.03 0.04 0.07 0.14 0.24 0.33 0.38 0.42 0.47 0.51 0.49 0.42 0.35 0.30 0.31 0.34 0.40 0.43 0.42 0.43 0.47 0.49 0.55 0.59 0.59 0.57 0.56 0.56 0.59 0.69 0.79
0.07 0.06 0.06 0.06 0.07 0.15 0.30 0.40 0.35 0.32 0.28 0.24 0.17 0.09 0.05 0.03 0.01 0.02 0.07 0.12 0.18 0.28 0.37 0.43 0.45 0.42 0.43 0.45 0.45 0.41 0.36 0.33 0.33 0.34 0.37 0.39 0.40 0.42 0.45 0.49 0.52 0.53 0.54 0.55 0.58 0.58 0.63 0.70 0.75
0.07 0.06 0.06 0.07 0.06 0.07 0.14 0.26 0.15 0.13 0.12 0.09 0.06 0.04 0.02 0.01 0.02 0.06 0.13 0.20 0.25 0.33 0.42 0.47 0.52 0.55 0.57 0.60 0.65 0.71 0.69 0.62 0.54 0.41 0.38 0.42 0.47 0.49 0.50 0.53 0.54 0.52 0.55 0.63 0.70 0.69 0.74 0.79 0.80

GEFSSGP_prec_meanprecacc_108.txt.gz
Total_Precipitation_Accumulation
0.00 0.02 0.12 0.19 0.23 0.49 0.59 0.38 0.24 0.17 0.16 0.21 0.31 0.32 0.27 0.25 0.29 0.32 0.08 0.02 0.01 0.00 0.01 0.04 0.04 0.03 0.03 0.03 0.04 0.05 0.07 0.08 0.08 0.07 0.06 0.05 0.03 0.02 0.02 0.02 0.02 0.03 0.03 0.04 0.04 0.04 0.03 0.04 0.03
0.00 0.02 0.09 0.15 0.35 0.90 0.77 0.34 0.21 0.20 0.23 0.25 0.31 0.38 0.40 0.25 0.16 0.10 0.04 0.03 0.02 0.01 0.02 0.03 0.05 0.04 0.03 0.03 0.04 0.05 0.06 0.07 0.08 0.07 0.06 0.05 0.04 0.04 0.05 0.03 0.03 0.04 0.05 0.05 0.04 0.03 0.03 0.03 0.03
0.00 0.01 0.05 0.13 0.36 0.66 0.51 0.21 0.16 0.18 0.28 0.31 0.37 0.31 0.33 0.21 0.12 0.07 0.04 0.03 0.03 0.03 0.03 0.07 0.08 0.05 0.03 0.03 0.03 0.05 0.05 0.06 0.07 0.06 0.06 0.05 0.05 0.06 0.06 0.05 0.04 0.05 0.06 0.06 0.04 0.03 0.03 0.03 0.04
0.00 0.01 0.03 0.09 0.18 0.27 0.22 0.13 0.11 0.15 0.23 0.27 0.39 0.37 0.28 0.17 0.17 0.15 0.05 0.03 0.03 0.04 0.05 0.07 0.09 0.07 0.04 0.03 0.03 0.04 0.05 0.06 0.07 0.07 0.06 0.07 0.07 0.07 0.06 0.05 0.04 0.05 0.07 0.07 0.05 0.03 0.03 0.03 0.04
0.00 0.01 0.03 0.07 0.10 0.17 0.17 0.14 0.12 0.13 0.20 0.27 0.28 0.32 0.30 0.22 0.15 0.09 0.04 0.03 0.04 0.05 0.06 0.06 0.08 0.07 0.06 0.05 0.04 0.04 0.05 0.06 0.07 0.07 0.06 0.06 0.06 0.07 0.07 0.06 0.06 0.07 0.09 0.10 0.06 0.04 0.04 0.04 0.04
0.00 0.00 0.01 0.03 0.06 0.08 0.12 0.11 0.14 0.15 0.20 0.33 0.29 0.29 0.35 0.27 0.13 0.07 0.05 0.05 0.05 0.06 0.06 0.07 0.10 0.10 0.09 0.07 0.07 0.06 0.06 0.07 0.08 0.07 0.06 0.06 0.06 0.07 0.08 0.09 0.09 0.10 0.10 0.10 0.07 0.05 0.05 0.04 0.05
0.00 0.00 0.00 0.01 0.02 0.03 0.07 0.10 0.13 0.15 0.25 0.41 0.37 0.37 0.49 0.44 0.22 0.17 0.20 0.13 0.11 0.12 0.16 0.11 0.09 0.11 0.12 0.11 0.10 0.09 0.08 0.08 0.08 0.09 0.08 0.07 0.07 0.08 0.11 0.14 0.15 0.14 0.14 0.14 0.10 0.06 0.05 0.06 0.07
0.00 0.00 0.00 0.00 0.01 0.02 0.03 0.05 0.09 0.24 0.26 0.32 0.31 0.41 0.62 0.56 0.30 0.25 0.28 0.24 0.25 0.30 0.25 0.16 0.13 0.15 0.13 0.11 0.11 0.12 0.11 0.10 0.10 0.10 0.10 0.10 0.10 0.12 0.17 0.18 0.22 0.25 0.25 0.23 0.19 0.14 0.11 0.10 0.10
0.00 0.00 0.00 0.00 0.00 0.01 0.02 0.04 0.07 0.17 0.30 0.44 0.45 0.43 0.56 0.45 0.36 0.31 0.26 0.36 0.36 0.43 0.32 0.16 0.15 0.16 0.16 0.14 0.14 0.17 0.17 0.16 0.15 0.17 0.18 0.19 0.20 0.27 0.39 0.41 0.47 0.47 0.45 0.42 0.38 0.35 0.30 0.25 0.17
0.00 0.00 0.00 0.00 0.00 0.00 0.01 0.03 0.10 0.18 0.42 0.58 0.58 0.50 0.53 0.54 0.49 0.45 0.33 0.35 0.36 0.29 0.24 0.22 0.21 0.20 0.19 0.19 0.27 0.31 0.30 0.34 0.29 0.36 0.43 0.45 0.53 0.51 0.46 0.65 0.85 0.88 0.92 0.86 0.82 0.79 0.62 0.43 0.36
0.00 0.00 0.00 0.00 0.00 0.00 0.01 0.04 0.12 0.27 0.54 0.82 1.02 0.98 0.76 0.73 0.70 0.63 0.49 0.45 0.47 0.41 0.34 0.32 0.29 0.30 0.29 0.33 0.35 0.41 0.46 0.59 0.48 0.47 0.60 0.79 0.81 0.65 0.62 0.73 0.96 1.16 1.19 1.07 1.30 1.37 0.98 0.87 1.01
0.00 0.00 0.00 0.00 0.00 0.00 0.03 0.06 0.13 0.29 0.55 0.74 0.89 1.10 1.15 1.09 1.08 0.97 0.83 0.82 0.74 0.64 0.54 0.47 0.43 0.41 0.43 0.47 0.48 0.54 0.56 0.71 0.68 0.79 0.88 1.03 1.15 1.04 1.01 1.07 1.08 1.21 1.33 1.55 1.66 1.73 1.55 1.45 1.37
0.00 0.00 0.00 0.00 0.00 0.01 0.04 0.12 0.22 0.33 0.43 0.58 0.68 0.76 0.95 1.16 1.33 1.22 1.19 1.29 1.09 0.87 0.71 0.65 0.69 0.77 0.76 0.82 0.86 0.85 0.87 0.95 1.00 1.14 1.16 1.18 1.33 1.29 1.34 1.32 1.38 1.33 1.45 1.67 1.87 1.84 1.88 1.91 1.77
0.00 0.00 0.00 0.00 0.00 0.01 0.05 0.18 0.21 0.31 0.38 0.43 0.54 0.73 1.07 1.36 1.38 1.35 1.50 1.46 1.33 1.27 1.19 1.11 1.14 1.33 1.33 1.30 1.21 1.24 1.23 1.24 1.23 1.33 1.33 1.41 1.55 1.62 1.54 1.38 1.43 1.41 1.51 1.61 1.80 1.90 2.15 2.09 2.00
0.00 0.01 0.01 0.01 0.02 0.03 0.07 0.21 0.25 0.32 0.43 0.57 0.78 0.88 1.16 1.26 1.31 1.33 1.40 1.46 1.43 1.59 1.72 1.75 1.86 1.94 1.92 1.86 1.69 1.59 1.60 1.53 1.55 1.58 1.58 1.71 1.74 1.80 1.73 1.55 1.46 1.54 1.62 1.68 1.74 1.86 2.12 2.05 1.92
0.01 0.02 0.05 0.05 0.05 0.06 0.12 0.42 0.33 0.42 0.62 0.85 1.06 1.06 1.18 1.13 1.23 1.32 1.44 1.54 1.53 1.67 1.92 2.21 2.43 2.43 2.35 2.24 2.05 1.87 1.79 1.74 1.71 1.70 1.69 1.72 1.78 1.81 1.78 1.57 1.42 1.64 1.67 1.70 1.82 1.89 2.01 2.08 2.09
0.02 0.04 0.09 0.13 0.12 0.08 0.21 0.60 0.60 0.68 0.79 0.89 0.97 1.07 1.14 1.10 1.26 1.49 1.59 1.81 1.82 1.92 2.29 2.78 2.90 2.88 2.77 2.50 2.24 2.07 2.01 1.88 1.76 1.74 1.65 1.66 1.74 1.73 1.77 1.51 1.38 1.64 1.79 1.78 1.67 1.89 2.10 2.07 2.09
0.03 0.04 0.07 0.12 0.13 0.13 0.29 0.49 0.60 0.74 0.86 0.95 0.91 0.92 0.92 1.04 1.32 1.54 1.72 1.81 1.96 2.32 2.71 2.99 3.11 3.23 3.14 3.01 2.74 2.39 2.16 1.94 1.81 1.71 1.58 1.48 1.43 1.54 1.74 1.47 1.45 1.70 1.76 1.72 1.81 1.95 2.12 2.00 2.05
0.04 0.07 0.14 0.15 0.13 0.26 0.44 0.59 0.68 0.79 0.82 0.91 1.00 0.91 0.88 1.07 1.32 1.45 1.60 1.78 1.96 2.32 2.59 3.00 3.24 3.22 3.12 3.06 2.76 2.35 1.98 1.78 1.62 1.49 1.39 1.39 1.44 1.58 1.85 1.61 1.62 1.67 1.61 1.61 1.80 1.94 1.87 1.75 2.16
0.06 0.11 0.18 0.23 0.16 0.24 0.42 0.65 0.77 0.75 0.78 0.84 0.97 1.10 1.08 1.18 1.26 1.44 1.66 1.73 1.68 1.85 2.20 2.49 2.59 2.33 2.15 2.07 2.02 1.88 1.81 1.61 1.46 1.41 1.45 1.43 1.49 1.56 1.68 1.69 1.62 1.62 1.60 1.45 1.54 1.80 1.68 1.40 1.85
0.09 0.09 0.10 0.16 0.17 0.27 0.45 0.77 0.88 0.71 0.70 0.80 0.91 1.13 1.25 1.21 1.26 1.40 1.57 1.56 1.45 1.46 1.63 1.77 1.68 1.52 1.48 1.52 1.60 1.63 1.71 1.60 1.58 1.65 1.71 1.56 1.57 1.59 1.68 1.59 1.45 1.41 1.42 1.30 1.31 1.52 1.59 1.38 1.44
0.12 0.07 0.05 0.08 0.20 0.42 0.52 0.90 0.98 0.81 0.77 0.80 0.87 0.97 0.99 1.02 1.02 1.09 1.15 1.23 1.17 1.13 1.24 1.40 1.35 1.30 1.37 1.57 1.66 1.69 1.81 1.91 2.05 2.23 2.18 2.02 1.85 1.73 1.64 1.48 1.32 1.17 1.14 1.11 1.08 1.25 1.37 1.38 1.18
0.07 0.04 0.05 0.08 0.16 0.30 0.37 0.64 0.87 0.92 0.81 0.72 0.76 0.84 0.82 0.87 0.89 0.85 0.92 1.04 1.06 0.97 1.02 1.21 1.32 1.45 1.64 1.80 1.89 1.98 2.04 2.09 2.08 2.10 2.03 1.93 1.82 1.68 1.53 1.41 1.29 1.18 1.08 1.02 1.00 1.05 1.09 1.12 1.04
0.04 0.07 0.14 0.18 0.28 0.51 0.43 0.48 0.79 0.82 0.72 0.64 0.54 0.55 0.60 0.63 0.63 0.65 0.75 1.01 1.22 1.20 1.12 1.15 1.33 1.54 1.68 1.74 1.81 1.83 1.80 1.75 1.64 1.54 1.43 1.35 1.31 1.26 1.20 1.12 1.03 0.99 0.99 1.00 0.97 0.95 0.96 0.98 1.00
0.06 0.15 0.47 0.70 0.84 0.82 0.43 0.43 0.69 0.65 0.63 0.56 0.60 0.61 0.46 0.41 0.47 0.47 0.45 0.52 0.59 0.66 0.70 0.71 0.78 0.97 1.09 1.17 1.21 1.22 1.23 1.15 1.05 0.96 0.87 0.80 0.75 0.71 0.68 0.70 0.72 0.74 0.75 0.76 0.78 0.77 0.78 0.87 0.94
0.06 0.09 0.27 0.38 0.48 0.56 0.46 0.77 0.78 0.53 0.43 0.44 0.49 0.42 0.28 0.25 0.26 0.24 0.21 0.22 0.34 0.47 0.59 0.65 0.62 0.60 0.60 0.64 0.69 0.67 0.69 0.65 0.61 0.65 0.59 0.54 0.53 0.50 0.49 0.52 0.55 0.57 0.60 0.62 0.66 0.66 0.66 0.68 0.74
0.05 0.05 0.07 0.11 0.19 0.37 0.52 0.83 0.78 0.45 0.40 0.39 0.28 0.18 0.14 0.11 0.10 0.10 0.09 0.09 0.17 0.31 0.41 0.46 0.49 0.50 0.52 0.55 0.53 0.46 0.41 0.40 0.40 0.44 0.44 0.45 0.49 0.44 0.45 0.49 0.54 0.57 0.61 0.63 0.61 0.62 0.63 0.72 0.77
0.06 0.06 0.06 0.08 0.17 0.28 0.44 0.67 0.75 0.48 0.42 0.34 0.22 0.17 0.10 0.06 0.04 0.03 0.03 0.04 0.07 0.14 0.24 0.34 0.40 0.44 0.49 0.53 0.50 0.42 0.35 0.31 0.31 0.34 0.40 0.43 0.42 0.43 0.47 0.49 0.55 0.59 0.59 0.57 0.56 0.56 0.59 0.69 0.79
0.07 0.07 0.06 0.06 0.08 0.16 0.31 0.41 0.35 0.32 0.28 0.24 0.17 0.09 0.05 0.03 0.01 0.02 0.07 0.12 0.18 0.28 0.37 0.44 0.47 0.44 0.44 0.47 0.46 0.42 0.36 0.33 0.33 0.35 0.37 0.39 0.40 0.42 0.46 0.49 0.52 0.53 0.54 0.55 0.58 0.58 0.64 0.70 0.75
0.07 0.06 0.06 0.08 0.07 0.07 0.14 0.26 0.15 0.13 0.12 0.09 0.06 0.04 0.02 0.01 0.02 0.06 0.13 0.20 0.25 0.33 0.42 0.48 0.53 0.56 0.57 0.61 0.66 0.72 0.69 0.63 0.54 0.41 0.38 0.42 0.47 0.49 0.50 0.53 0.54 0.52 0.55 0.63 0.70 0.69 0.74 0.79 0.81

GEFSSGP_prec_meanprecacc_114.txt.gz
Total_Precipitation_Accumulation
0.00 0.02 0.12 0.19 0.26 0.57 0.66 0.39 0.24 0.17 0.16 0.21 0.31 0.33 0.28 0.27 0.34 0.47 0.12 0.03 0.01 0.00 0.01 0.04 0.04 0.03 0.04 0.05 0.07 0.08 0.08 0.10 0.10 0.09 0.07 0.06 0.04 0.03 0.03 0.03 0.03 0.04 0.04 0.04 0.05 0.05 0.04 0.05 0.04
0.00 0.02 0.09 0.16 0.39 0.97 0.81 0.34 0.21 0.20 0.23 0.25 0.31 0.38 0.41 0.25 0.17 0.12 0.05 0.03 0.02 0.01 0.02 0.03 0.06 0.05 0.04 0.05 0.06 0.07 0.07 0.08 0.09 0.08 0.07 0.06 0.05 0.05 0.05 0.04 0.04 0.05 0.06 0.06 0.05 0.04 0.03 0.04 0.04
0.00 0.01 0.05 0.13 0.38 0.68 0.52 0.22 0.16 0.18 0.28 0.31 0.37 0.31 0.36 0.23 0.13 0.08 0.05 0.04 0.03 0.03 0.04 0.07 0.08 0.05 0.04 0.05 0.06 0.07 0.07 0.08 0.08 0.08 0.07 0.06 0.06 0.06 0.07 0.06 0.06 0.06 0.07 0.07 0.05 0.04 0.04 0.04 0.04
0.00 0.01 0.03 0.10 0.20 0.28 0.22 0.13 0.11 0.15 0.23 0.28 0.39 0.39 0.30 0.18 0.18 0.15 0.05 0.03 0.03 0.05 0.06 0.07 0.09 0.07 0.05 0.05 0.05 0.06 0.07 0.08 0.09 0.09 0.08 0.08 0.08 0.08 0.07 0.07 0.06 0.07 0.08 0.08 0.06 0.04 0.04 0.04 0.04
0.00 0.01 0.03 0.08 0.12 0.18 0.17 0.14 0.13 0.13 0.20 0.28 0.30 0.37 0.35 0.24 0.15 0.09 0.04 0.04 0.04 0.06 0.06 0.06 0.08 0.08 0.07 0.06 0.07 0.07 0.07 0.08 0.08 0.08 0.07 0.07 0.08 0.09 0.08 0.07 0.06 0.08 0.09 0.10 0.07 0.05 0.04 0.04 0.05
0.00 0.00 0.02 0.04 0.06 0.08 0.12 0.11 0.14 0.16 0.22 0.35 0.30 0.32 0.41 0.30 0.13 0.07 0.06 0.05 0.05 0.06 0.06 0.07 0.10 0.11 0.10 0.09 0.10 0.09 0.08 0.09 0.09 0.08 0.07 0.07 0.07 0.08 0.09 0.09 0.09 0.10 0.10 0.10 0.08 0.05 0.05 0.05 0.06
0.00 0.00 0.01 0.01 0.02 0.03 0.07 0.10 0.14 0.16 0.26 0.42 0.37 0.40 0.54 0.47 0.22 0.17 0.20 0.13 0.11 0.13 0.16 0.11 0.10 0.12 0.13 0.14 0.13 0.12 0.10 0.10 0.10 0.10 0.08 0.08 0.07 0.08 0.12 0.15 0.16 0.15 0.14 0.14 0.11 0.06 0.05 0.06 0.07
0.00 0.00 0.01 0.00 0.01 0.02 0.03 0.06 0.09 0.24 0.28 0.34 0.32 0.46 0.76 0.63 0.31 0.25 0.29 0.24 0.26 0.31 0.25 0.16 0.15 0.16 0.14 0.12 0.13 0.15 0.13 0.12 0.12 0.11 0.10 0.10 0.10 0.13 0.18 0.19 0.23 0.26 0.26 0.24 0.20 0.14 0.11 0.10 0.10
0.00 0.00 0.00 0.00 0.00 0.01 0.02 0.04 0.07 0.17 0.31 0.45 0.46 0.46 0.67 0.50 0.37 0.33 0.30 0.39 0.39 0.49 0.38 0.20 0.19 0.20 0.19 0.16 0.17 0.20 0.19 0.18 0.17 0.19 0.19 0.21 0.25 0.31 0.43 0.44 0.48 0.47 0.46 0.43 0.39 0.35 0.30 0.26 0.17
0.00 0.00 0.00 0.00 0.00 0.00 0.01 0.03 0.10 0.19 0.44 0.62 0.64 0.57 0.68 0.59 0.52 0.48 0.38 0.40 0.41 0.39 0.35 0.27 0.28 0.25 0.23 0.23 0.30 0.37 0.38 0.40 0.35 0.43 0.47 0.53 0.65 0.61 0.54 0.70 0.87 0.90 0.92 0.86 0.83 0.80 0.63 0.44 0.39
0.00 0.00 0.00 0.00 0.00 0.00 0.01 0.04 0.12 0.28 0.56 0.86 1.11 1.11 0.89 0.80 0.76 0.69 0.56 0.52 0.55 0.51 0.46 0.39 0.38 0.39 0.37 0.44 0.44 0.50 0.59 0.73 0.59 0.58 0.68 0.91 0.92 0.72 0.69 0.81 1.01 1.19 1.22 1.11 1.34 1.41 1.03 0.90 1.06
0.00 0.00 0.00 0.00 0.00 0.00 0.03 0.06 0.13 0.30 0.57 0.77 0.96 1.22 1.26 1.16 1.17 1.08 0.92 0.93 0.88 0.82 0.69 0.58 0.52 0.49 0.51 0.56 0.59 0.65 0.67 0.82 0.79 0.90 0.96 1.11 1.25 1.15 1.11 1.18 1.19 1.30 1.42 1.63 1.72 1.79 1.59 1.49 1.42
0.00 0.00 0.00 0.00 0.00 0.01 0.04 0.12 0.22 0.34 0.44 0.60 0.71 0.85 1.06 1.28 1.45 1.36 1.33 1.48 1.25 1.09 0.99 0.82 0.80 0.87 0.87 0.91 0.98 0.94 0.96 1.07 1.13 1.24 1.25 1.26 1.42 1.40 1.45 1.44 1.48 1.40 1.52 1.73 1.93 1.89 1.92 1.95 1.81
0.00 0.00 0.00 0.01 0.01 0.01 0.06 0.18 0.22 0.32 0.38 0.45 0.57 0.79 1.22 1.54 1.53 1.50 1.68 1.70 1.53 1.49 1.43 1.28 1.27 1.44 1.45 1.39 1.30 1.33 1.30 1.39 1.40 1.43 1.42 1.48 1.65 1.75 1.66 1.50 1.52 1.48 1.55 1.65 1.84 1.94 2.20 2.13 2.03
0.00 0.01 0.02 0.02 0.02 0.03 0.07 0.22 0.27 0.34 0.45 0.61 0.83 0.96 1.30 1.44 1.51 1.53 1.62 1.73 1.64 1.79 1.95 1.96 2.03 2.06 2.05 1.99 1.77 1.66 1.68 1.63 1.66 1.71 1.67 1.78 1.84 1.91 1.82 1.63 1.52 1.58 1.65 1.73 1.78 1.91 2.18 2.10 1.97
0.01 0.03 0.06 0.06 0.05 0.06 0.12 0.44 0.36 0.45 0.68 0.94 1.13 1.15 1.28 1.25 1.42 1.52 1.67 1.80 1.73 1.88 2.16 2.50 2.73 2.64 2.50 2.37 2.18 1.97 1.90 1.85 1.81 1.79 1.77 1.78 1.86 1.89 1.84 1.62 1.46 1.68 1.69 1.74 1.87 1.95 2.08 2.15 2.16
0.03 0.05 0.11 0.14 0.12 0.08 0.22 0.61 0.61 0.70 0.84 0.97 1.04 1.16 1.24 1.20 1.39 1.66 1.80 2.07 2.05 2.16 2.54 3.03 3.26 3.21 2.98 2.63 2.35 2.19 2.11 1.98 1.85 1.81 1.72 1.73 1.80 1.77 1.82 1.56 1.44 1.68 1.84 1.83 1.71 1.97 2.18 2.13 2.15
0.03 0.04 0.08 0.13 0.13 0.13 0.29 0.50 0.61 0.75 0.88 0.99 0.97 0.99 1.01 1.13 1.47 1.75 1.95 2.02 2.17 2.58 3.00 3.26 3.39 3.54 3.38 3.19 2.89 2.54 2.28 2.04 1.90 1.80 1.66 1.54 1.48 1.57 1.78 1.52 1.51 1.76 1.82 1.78 1.86 2.01 2.18 2.05 2.09
0.04 0.07 0.14 0.16 0.13 0.26 0.44 0.59 0.69 0.80 0.83 0.93 1.03 0.96 0.95 1.16 1.46 1.68 1.87 2.01 2.14 2.53 2.83 3.25 3.49 3.45 3.32 3.24 2.92 2.50 2.12 1.91 1.73 1.58 1.45 1.43 1.47 1.61 1.89 1.66 1.67 1.72 1.66 1.66 1.85 1.98 1.91 1.80 2.20
0.06 0.11 0.19 0.23 0.16 0.24 0.43 0.67 0.78 0.77 0.79 0.86 1.00 1.14 1.15 1.29 1.44 1.69 1.89 1.94 1.87 2.01 2.39 2.67 2.79 2.50 2.30 2.22 2.18 2.03 1.97 1.74 1.56 1.50 1.53 1.47 1.52 1.59 1.71 1.73 1.65 1.66 1.63 1.49 1.58 1.83 1.71 1.43 1.87
0.09 0.09 0.10 0.16 0.18 0.28 0.46 0.81 0.91 0.74 0.71 0.81 0.93 1.16 1.32 1.29 1.38 1.58 1.77 1.73 1.62 1.61 1.77 1.90 1.84 1.68 1.63 1.66 1.73 1.77 1.85 1.73 1.71 1.77 1.78 1.61 1.60 1.63 1.71 1.62 1.47 1.44 1.44 1.33 1.34 1.54 1.61 1.41 1.45
0.13 0.07 0.05 0.08 0.20 0.43 0.53 0.94 1.01 0.82 0.78 0.82 0.89 0.99 1.03 1.06 1.07 1.17 1.27 1.39 1.32 1.27 1.38 1.56 1.52 1.45 1.51 1.70 1.78 1.81 1.90 2.02 2.15 2.31 2.24 2.07 1.88 1.76 1.67 1.50 1.34 1.19 1.15 1.12 1.09 1.26 1.38 1.38 1.19
0.07 0.04 0.05 0.09 0.17 0.34 0.41 0.67 0.88 0.92 0.83 0.74 0.77 0.85 0.84 0.88 0.91 0.90 1.00 1.18 1.18 1.09 1.16 1.35 1.48 1.58 1.75 1.92 2.00 2.09 2.13 2.18 2.15 2.17 2.09 1.97 1.86 1.71 1.54 1.41 1.30 1.19 1.09 1.02 1.01 1.05 1.09 1.13 1.05
0.04 0.07 0.14 0.20 0.34 0.64 0.49 0.50 0.81 0.83 0.74 0.64 0.54 0.56 0.60 0.63 0.65 0.68 0.79 1.09 1.32 1.29 1.24 1.27 1.44 1.64 1.80 1.86 1.91 1.93 1.89 1.83 1.72 1.61 1.49 1.39 1.33 1.28 1.21 1.13 1.04 0.99 0.99 1.01 0.98 0.95 0.96 0.98 1.00
0.06 0.15 0.49 0.77 1.00 0.99 0.48 0.44 0.70 0.65 0.64 0.56 0.61 0.61 0.46 0.41 0.48 0.48 0.48 0.56 0.64 0.71 0.77 0.78 0.85 1.04 1.18 1.25 1.28 1.30 1.31 1.22 1.11 1.02 0.93 0.84 0.76 0.71 0.69 0.71 0.73 0.75 0.75 0.76 0.78 0.78 0.79 0.87 0.95
0.06 0.10 0.30 0.45 0.57 0.65 0.52 0.81 0.80 0.54 0.43 0.44 0.49 0.42 0.28 0.25 0.27 0.26 0.23 0.24 0.37 0.50 0.63 0.69 0.68 0.66 0.66 0.70 0.75 0.73 0.75 0.70 0.65 0.70 0.63 0.56 0.54 0.51 0.49 0.53 0.56 0.57 0.60 0.62 0.66 0.66 0.66 0.68 0.74
0.05 0.05 0.07 0.12 0.20 0.41 0.59 0.89 0.82 0.46 0.40 0.39 0.28 0.18 0.14 0.11 0.10 0.10 0.10 0.11 0.19 0.32 0.43 0.49 0.54 0.54 0.56 0.58 0.57 0.50 0.45 0.44 0.44 0.47 0.47 0.47 0.50 0.45 0.46 0.50 0.54 0.58 0.61 0.63 0.61 0.62 0.63 0.72 0.77
0.06 0.06 0.06 0.09 0.19 0.32 0.49 0.75 0.83 0.53 0.43 0.34 0.22 0.17 0.10 0.06 0.04 0.03 0.04 0.05 0.09 0.15 0.25 0.35 0.43 0.48 0.53 0.57 0.53 0.44 0.38 0.35 0.35 0.37 0.42 0.44 0.43 0.44 0.47 0.50 0.56 0.59 0.59 0.57 0.56 0.56 0.60 0.69 0.79
0.07 0.07 0.06 0.06 0.08 0.19 0.37 0.52 0.45 0.37 0.29 0.24 0.17 0.10 0.05 0.03 0.01 0.02 0.07 0.12 0.19 0.29 0.38 0.45 0.49 0.48 0.48 0.50 0.48 0.46 0.41 0.38 0.37 0.37 0.38 0.40 0.41 0.42 0.46 0.50 0.52 0.54 0.54 0.55 0.58 0.58 0.64 0.70 0.75
0.08 0.06 0.07 0.08 0.07 0.08 0.17 0.31 0.20 0.15 0.13 0.09 0.06 0.04 0.02 0.01 0.02 0.06 0.13 0.20 0.25 0.33 0.42 0.49 0.54 0.57 0.59 0.63 0.69 0.76 0.73 0.66 0.56 0.43 0.39 0.43 0.48 0.49 0.50 0.53 0.54 0.52 0.55 0.64 0.70 0.70 0.74 0.79 0.81